Location: Los Gatos B&B
(42.6926°N, 77.0646°W)
Time: 10:46:26
(UTC-04:00)

Cosmos 2263 Rocket - Visible Passes

Search period start: 26 September 2017 00:00
Search period end: 06 October 2017 00:00
Orbit: 822 x 850 km, 71.0° (Epoch: 25 September)

Date Brightness Start Highest point End Pass type
(mag) Time Alt. Az. Time Alt. Az. Time Alt. Az.
26 Sep 2.5 04:08:41 64° E 04:08:41 64° E 04:13:54 10° NNE visible
26 Sep 3.6 05:50:24 17° W 05:52:41 22° NW 05:57:01 10° N visible
27 Sep 3.0 03:52:48 48° ENE 03:52:48 48° ENE 03:57:09 10° NNE visible
27 Sep 3.4 05:34:32 21° WNW 05:35:53 23° NW 05:40:23 10° N visible
28 Sep 3.5 03:36:53 36° NE 03:36:53 36° NE 03:40:24 10° NNE visible
28 Sep 3.4 05:18:36 24° WNW 05:19:06 25° NW 05:23:45 10° N visible
29 Sep 4.0 03:20:54 28° NE 03:20:54 28° NE 03:23:38 10° NE visible
29 Sep 3.4 05:02:37 26° NW 05:02:37 26° NW 05:07:06 10° N visible
30 Sep 4.4 03:04:52 22° NE 03:04:52 22° NE 03:06:52 10° NE visible
30 Sep 3.5 04:46:35 27° NW 04:46:35 27° NW 04:50:27 10° N visible
01 Oct 4.7 02:48:48 17° NE 02:48:48 17° NE 02:50:06 10° NE visible
01 Oct 3.6 04:30:30 26° NNW 04:30:30 26° NNW 04:33:47 10° N visible
02 Oct 4.9 02:32:42 13° NE 02:32:42 13° NE 02:33:19 10° NE visible
02 Oct 3.8 04:14:24 24° NNW 04:14:24 24° NNW 04:17:07 10° N visible
03 Oct 4.1 03:58:15 21° N 03:58:15 21° N 04:00:27 10° N visible
04 Oct 4.3 03:42:05 19° N 03:42:05 19° N 03:43:47 10° N visible
05 Oct 4.6 03:25:54 16° N 03:25:54 16° N 03:27:06 10° NNE visible
